星链-5409 (STARLINK-5409 )

导读

STARLINK-5409是美国太空探索技术公司(SpaceX)星链(Starlink)星座的成员,于2022年12月28日发射入轨,属于星链互联网卫星组网批次,其核心使命是为全球范围内用户提供低延迟、高速率的卫星宽带互联网服务,填补地面网络覆盖盲区,支撑偏远地区通信、移动互联等应用场景,是Starlink大规模低轨星座建设中的重要组成部分。

基本信息
目录编号:
54859
目录名称:
STARLINK-5409
国际标识:
2022-177AR
轨道中心:
EARTH
卫星名称:
星链-5409
卫星全名:
星链-5409 (STARLINK-5409 )
卫星状态:
在轨 (已飞行1354 天)
发射日期:
2022-12-28 UTC
国别 :
美国 (US)
星等 :
--
该卫星已列入 空间交会检测服务 Space Conjunction Data Service (SCDS) ,当前飞行风险评估等级: 无高风险
轨道信息
数据来源 国际轨道数据 AOE轨道数据
星历时间 2026-09-12T09:39:12+0800
11小时前
查看轨道信息
2026-09-09T22:00:00+0800
2天前
查看轨道信息
半长轴 6861.201km 6861.2km
偏心率 0.000107 0.0001372
轨道倾角 43.001° 43.000°
近地点辐角 243.347° 230.331°
升交点赤经 149.117° 163.157°
平近点角 116.727° 124.992°
近地点 482.329km 482.121km
远地点 483.799km 484.005km
周期 94.267分钟 94.267分钟
每日圈数 15.275752 15.275756
详细信息
固有亮度:
5
最大亮度:
2.5
卫星平台:
Starlink v1.5
覆盖范围:
全球
运营商:
太空探索技术公司
运营商所在国:
美国
制造商(研发单位):
太空探索技术公司
制造商所在国:
美国
使用方式:
暂无
卫星简介
星链(Starlink)计划是由太空探索技术公司(SpaceX)提出的一个巨型低轨卫星互联网星座项目,计划在2019年至2024年间在太空搭建由约1.2万颗卫星组成的“星链”网络,其中1584颗将部署在地球上空550千米处的近地轨道,并从2020年开始工作。该卫星仍在工作。
2D轨道图
3D轨道图
轨道高度分析图
轨道倾角分析图
轨道综合分析图
查看轨道综合分析图
交会数据列表
事件ID 空间交会对象 最接近时刻(TCA) 交会距离 交会风险概率(CRP) 交会风险指数(CRI) 操作
CDM_260912-105904-380405-485926
SUOMI100 (43804)
2026-09-12T
10:59:35+0000
1.135 km
极远距离
1.706763E-5 中风险 0.6
CDM_260913-014705-485906-435122
2026-09-13T
01:47:53+0000
2.945 km
极远距离
1.210566E-6 低风险 0.37
与全量物体交会距离演化趋势
与全量物体交会风险概率演化趋势